TimeEDT,TemperatureF,Dew PointF,Humidity,Sea Level PressureIn,VisibilityMPH,Wind Direction,Wind SpeedMPH,Gust SpeedMPH,PrecipitationIn,Events,Conditions,WindDirDegrees,DateUTC
12:54 AM,60.1,57.9,93,29.97,10.0,ENE,8.1,-,N/A,,Overcast,60,2013-10-06 04:54:00
1:54 AM,60.1,59.0,96,29.96,8.0,East,9.2,-,0.06,,Overcast,80,2013-10-06 05:54:00
2:49 AM,60.8,60.8,100,29.95,9.0,NE,4.6,-,N/A,,Overcast,50,2013-10-06 06:49:00
2:54 AM,61.0,60.1,97,29.94,8.0,ENE,4.6,-,N/A,,Overcast,70,2013-10-06 06:54:00
3:54 AM,61.0,60.1,97,29.93,8.0,ENE,6.9,-,N/A,,Overcast,70,2013-10-06 07:54:00
4:09 AM,60.8,60.8,100,29.93,9.0,ENE,4.6,-,N/A,,Overcast,70,2013-10-06 08:09:00
4:54 AM,62.1,60.1,93,29.93,9.0,Calm,Calm,-,N/A,,Overcast,0,2013-10-06 08:54:00
5:54 AM,63.0,62.1,97,29.91,9.0,ESE,4.6,-,0.00,,Overcast,110,2013-10-06 09:54:00
6:54 AM,64.9,63.0,93,29.89,9.0,ESE,5.8,-,N/A,,Overcast,120,2013-10-06 10:54:00
7:54 AM,66.0,64.9,96,29.91,3.0,SW,5.8,-,0.03,Rain-Thunderstorm,Light Thunderstorms and Rain,230,2013-10-06 11:54:00
8:29 AM,66.2,64.4,94,29.91,6.0,Calm,Calm,-,0.00,,Overcast,0,2013-10-06 12:29:00
8:47 AM,66.2,64.4,94,29.92,1.5,Calm,Calm,-,0.00,Rain,Rain,0,2013-10-06 12:47:00
8:54 AM,66.9,64.9,93,29.92,4.0,Calm,Calm,-,0.02,Rain,Light Rain,0,2013-10-06 12:54:00
9:37 AM,68.0,66.2,94,29.91,6.0,Calm,Calm,-,0.00,,Overcast,0,2013-10-06 13:37:00
9:54 AM,69.1,66.9,93,29.90,8.0,SSE,4.6,-,0.00,,Overcast,150,2013-10-06 13:54:00
10:54 AM,70.0,68.0,93,29.90,9.0,SSE,5.8,-,0.01,,Overcast,160,2013-10-06 14:54:00
11:54 AM,73.0,69.1,87,29.86,10.0,South,6.9,-,N/A,,Mostly Cloudy,180,2013-10-06 15:54:00
12:54 PM,75.9,69.1,79,29.85,10.0,SSW,8.1,-,N/A,,Mostly Cloudy,200,2013-10-06 16:54:00
1:54 PM,79.0,69.1,72,29.82,10.0,South,8.1,-,N/A,,Mostly Cloudy,170,2013-10-06 17:54:00
2:54 PM,81.0,66.0,60,29.80,10.0,SSW,19.6,27.6,N/A,,Overcast,200,2013-10-06 18:54:00
3:54 PM,81.0,66.0,60,29.79,10.0,SSW,15.0,-,N/A,,Mostly Cloudy,210,2013-10-06 19:54:00
4:54 PM,81.0,66.0,60,29.77,10.0,WSW,6.9,-,N/A,,Mostly Cloudy,250,2013-10-06 20:54:00
5:54 PM,79.0,66.0,64,29.76,10.0,WSW,4.6,-,N/A,,Mostly Cloudy,250,2013-10-06 21:54:00
6:54 PM,77.0,64.0,64,29.75,10.0,Calm,Calm,-,N/A,,Mostly Cloudy,0,2013-10-06 22:54:00
7:54 PM,75.0,64.9,71,29.75,10.0,SE,5.8,-,N/A,,Mostly Cloudy,140,2013-10-06 23:54:00
8:54 PM,73.0,64.9,76,29.73,10.0,SE,9.2,-,N/A,,Mostly Cloudy,130,2013-10-07 00:54:00
9:54 PM,73.9,63.0,68,29.72,10.0,SE,12.7,-,N/A,,Mostly Cloudy,140,2013-10-07 01:54:00
10:54 PM,73.0,63.0,71,29.70,10.0,SSE,13.8,-,N/A,,Mostly Cloudy,150,2013-10-07 02:54:00
11:54 PM,75.9,62.1,62,29.68,10.0,South,19.6,-,N/A,,Mostly Cloudy,170,2013-10-07 03:54:00